This is the latest recevied weather packets stored in our database for station/object KC1BRV. If no packets are shown the sender has not sent any weather packets the latest 1 day(s).
| Time | Temp. | Humidity | Pressure | Rain* | Wind** | Luminosity | Snow |
|---|---|---|---|---|---|---|---|
| 1778017763 | 18.33° C | 61% | 1010.6 hPa | 0 mm | 0 m/s | 55 W/m² | - |
| 1778017461 | 18.89° C | 59% | 1010.7 hPa | 0 mm | 1.34 m/s, 135° | 52 W/m² | - |
| 1778017158 | 18.89° C | 59% | 1010.4 hPa | 0 mm | 0.89 m/s, 185° | 50 W/m² | - |
| 1778016856 | 19.44° C | 57% | 1010.7 hPa | 0 mm | 0.89 m/s, 97° | 49 W/m² | - |
| 1778016551 | 20° C | 56% | 1010.6 hPa | 0 mm | 0.89 m/s, 186° | 50 W/m² | - |
| 1778016248 | 20° C | 55% | 1010.4 hPa | 0 mm | 0.89 m/s, 46° | 51 W/m² | - |
| 1778015945 | 20° C | 55% | 1010.3 hPa | 0 mm | 3.13 m/s, 131° | 52 W/m² | - |
| 1778015643 | 20° C | 56% | 1010.4 hPa | 0 mm | 0 m/s | 54 W/m² | - |
| 1778015338 | 20° C | 55% | 1010.4 hPa | 0 mm | 2.68 m/s, 126° | 54 W/m² | - |
| 1778015036 | 20° C | 55% | 1010.4 hPa | 0 mm | 2.68 m/s, 154° | 51 W/m² | - |
| 1778014732 | 20° C | 57% | 1010.3 hPa | 0 mm | 0 m/s | 52 W/m² | - |
| 1778014431 | 20° C | 56% | 1010.5 hPa | 0 mm | 0.89 m/s, 137° | 53 W/m² | - |
| 1778014127 | 20° C | 56% | 1010.1 hPa | 0 mm | 0 m/s | 53 W/m² | - |
| 1778013825 | 20.56° C | 55% | 1010.3 hPa | 0 mm | 1.34 m/s, 125° | 54 W/m² | - |
| 1778013522 | 20.56° C | 56% | 1010.2 hPa | 0 mm | 2.24 m/s, 211° | 55 W/m² | - |
| 1778013218 | 20.56° C | 56% | 1010.2 hPa | 0 mm | 0 m/s | 57 W/m² | - |
| 1778012915 | 20.56° C | 56% | 1010.5 hPa | 0 mm | 1.34 m/s, 112° | 73 W/m² | - |
| 1778012611 | 20.56° C | 54% | 1010.7 hPa | 0 mm | 1.34 m/s, 226° | 374 W/m² | - |
| 1778012308 | 21.67° C | 52% | 1010.4 hPa | 0 mm | 1.79 m/s, 241° | 413 W/m² | - |
| 1778012006 | 21.67° C | 51% | 1010.5 hPa | 0 mm | 0 m/s | 428 W/m² | - |
| 1778011704 | 21.67° C | 51% | 1010.5 hPa | 0 mm | 0.89 m/s, 52° | 441 W/m² | - |
| 1778011400 | 21.67° C | 52% | 1010.4 hPa | 0 mm | 1.79 m/s, 346° | 455 W/m² | - |
| 1778011095 | 21.67° C | 51% | 1010.3 hPa | 0 mm | 0.89 m/s, 193° | 470 W/m² | - |
| 1778010794 | 22.22° C | 51% | 1010.2 hPa | 0 mm | 1.34 m/s, 113° | 481 W/m² | - |
| 1778010490 | 21.67° C | 51% | 1009.9 hPa | 0 mm | 0.45 m/s, 224° | 495 W/m² | - |
* Rain latest hour (hover to see other rain measurements)
** Current wind speed in m/s (hover to see current wind gust speed)